Location: Unspecified
(0.0000°N, 0.0000°E)
Time: 05:35:22
(UTC+00:00)

S-56A Canister/Altair - Pass Details

Date: 28 May 2024
Orbit: 637 x 2489 km, 38.9° (Epoch: 21 June)

Event Time Altitude Azimuth Distance (km) Brightness Sun altitude
Rises 22:47:47 0° 208° (SSW) 4,840 - -62.5°
Reaches altitude 10° 22:51:07 10° 199° (SSW) 4,107 - -63.0°
Maximum altitude 23:01:20 35° 137° (SE) 3,151 - -64.4°
Drops below altitude 10° 23:13:58 10° 78° (ENE) 5,120 - -65.9°
Exits shadow 23:17:53 - 71° (ENE) 5,986 12.0 -66.3°
Sets 23:18:38 0° 70° (ENE) 6,156 12.1 -66.4°
